Weather History for Shannon, Ireland

Change the Weather History Date:

Friday, October 18, 2013

  Actual Average Record
Temperature  
Mean Temperature 58 °F -  
Max Temperature 61 °F 54 °F 68 °F (1997)
Min Temperature 55 °F 42 °F 37 °F (2002)
Degree Days  
Heating Degree Days 7    
Growing Degree Days 8 (Base 50)    
Moisture  
Dew Point 56 °F    
Average Humidity 93    
Maximum Humidity 100    
Minimum Humidity 81    
Precipitation  
Precipitation 0.12 in 0.12 in - ()
Sea Level Pressure  
Sea Level Pressure 29.58 in    
Wind  
Wind Speed 13 mph ()    
Max Wind Speed 29 mph    
Max Gust Speed 38 mph    
Visibility 6.4 miles    
Events Rain    
Averages and records for this station are not official NWS values.
T = Trace of Precipitation, MM = Missing Value Source: Averaged Metar Reports

Daily Weather History Graph

Daily Weather History Graph

Search for Another Location

Airport:

Trip Planner

Search our weather history database for the weather conditions in past years. The results will help you decide how hot, cold, wet, or windy it might be!

Date:

Astronomy

Oct. 18, 2013 Rise Set
Actual Time 8:07 AM IST 6:33 PM IST
Civil Twilight 7:32 AM IST 7:08 PM IST
Nautical Twilight 6:52 AM IST 7:48 PM IST
Astronomical Twilight 6:12 AM IST 8:27 PM IST
Moon 6:13 PM IST (10/18) 7:26 AM IST (10/18)
Length of Visible Light 11h 36m
Length of Day
10h 26m
Full, 100% of the Moon is Illuminated
Oct 18
Full
Oct 19
Full
Oct 27
Last Quarter
Nov 3
New
Nov 10
First Quarter

Hourly Weather History & Observations

Time (IST) Temp. Dew Point Humidity Pressure Visibility Wind Dir Wind Speed Gust Speed Precip Events Conditions
12:00 AM 57.2 °F 57.2 °F 100% 29.80 in 6.2 mi ESE 9.2 mph - N/A Rain Light Rain
12:30 AM 57.2 °F 55.4 °F 94% 29.80 in 6.2 mi ESE 11.5 mph - N/A   Mostly Cloudy
1:00 AM 57 °F 56 °F 94% 29.81 in 12 mi ESE 11.2 mph - - Rain Light Rain
1:00 AM 57.2 °F 55.4 °F 94% 29.80 in 6.2 mi ESE 10.4 mph - N/A   Mostly Cloudy
1:30 AM 57.2 °F 55.4 °F 94% 29.80 in 6.2 mi SE 13.8 mph - N/A   Mostly Cloudy
2:00 AM 57.2 °F 55.4 °F 94% 29.77 in 6.2 mi ESE 11.5 mph - N/A   Mostly Cloudy
2:30 AM 57.2 °F 55.4 °F 94% 29.77 in 6.2 mi East 8.1 mph - N/A   Mostly Cloudy
3:00 AM 57.2 °F 55.4 °F 94% 29.77 in 6.2 mi ESE 10.4 mph - N/A   Mostly Cloudy
3:30 AM 57.2 °F 55.4 °F 94% 29.74 in 6.2 mi East 12.7 mph - N/A   Mostly Cloudy
4:00 AM 57.2 °F 55.4 °F 94% 29.74 in 6.2 mi East 11.5 mph - N/A   Mostly Cloudy
4:30 AM 57.2 °F 55.4 °F 94% 29.71 in 6.2 mi East 9.2 mph - N/A   Mostly Cloudy
5:00 AM 57.2 °F 55.4 °F 94% 29.71 in 6.2 mi East 12.7 mph - N/A   Mostly Cloudy
5:30 AM 57.2 °F 55.4 °F 94% 29.71 in 6.2 mi East 12.7 mph - N/A   Mostly Cloudy
6:00 AM 59.0 °F 55.4 °F 88% 29.68 in 6.2 mi ESE 12.7 mph - N/A   Mostly Cloudy
6:30 AM 59.0 °F 55.4 °F 88% 29.68 in 6.2 mi ESE 16.1 mph - N/A   Mostly Cloudy
7:00 AM 58 °F 54 °F 81% 29.67 in 12 mi ESE 13.4 mph - - Rain Light Rain
7:00 AM 57.2 °F 53.6 °F 88% 29.65 in 6.2 mi ESE 13.8 mph - N/A   Mostly Cloudy
7:30 AM 57.2 °F 53.6 °F 88% 29.65 in 6.2 mi East 13.8 mph - N/A Rain Light Rain
8:00 AM 57.2 °F 53.6 °F 88% 29.65 in 5.6 mi East 10.4 mph - N/A Rain Light Rain
8:30 AM 57.2 °F 53.6 °F 88% 29.62 in 5.6 mi East 13.8 mph - N/A Rain Light Rain
9:00 AM 57.2 °F 55.4 °F 94% 29.62 in 5.6 mi East 12.7 mph - N/A Rain Light Rain
9:30 AM 57.2 °F 55.4 °F 94% 29.59 in 6.2 mi East 16.1 mph - N/A Rain Light Rain
10:00 AM 57.2 °F 55.4 °F 94% 29.59 in 6.2 mi East 18.4 mph - N/A Rain Light Rain
10:30 AM 57.2 °F 53.6 °F 88% 29.56 in 3.7 mi East 26.5 mph 38.0 mph N/A Rain Light Rain
11:00 AM 55.4 °F 53.6 °F 94% 29.53 in 3.7 mi East 28.8 mph - N/A   Light Drizzle
11:30 AM 55.4 °F 53.6 °F 94% 29.53 in 6.2 mi East 26.5 mph - N/A   Mostly Cloudy
12:00 PM 57.2 °F 53.6 °F 88% 29.50 in 6.2 mi ESE 28.8 mph - N/A   Mostly Cloudy
12:30 PM 55.4 °F 53.6 °F 94% 29.50 in 6.2 mi East 27.6 mph - N/A   Mostly Cloudy
1:00 PM 55 °F 53 °F 92% 29.50 in 10 mi East 22.4 mph - - Rain Light Drizzle
1:00 PM 55.4 °F 53.6 °F 94% 29.50 in 6.2 mi East 21.9 mph - N/A   Mostly Cloudy
1:30 PM 55.4 °F 53.6 °F 94% 29.50 in 5.0 mi East 20.7 mph - N/A Rain Light Rain
2:00 PM 57.2 °F 57.2 °F 100% 29.50 in 4.3 mi ESE 21.9 mph - N/A Rain Light Rain
2:30 PM 59.0 °F 59.0 °F 100% 29.47 in 6.2 mi SE 13.8 mph - N/A   Mostly Cloudy
3:00 PM 60.8 °F 59.0 °F 94% 29.47 in 6.2 mi ESE 16.1 mph - N/A   Mostly Cloudy
3:30 PM 60.8 °F 59.0 °F 94% 29.47 in 6.2 mi SE 16.1 mph - N/A   Mostly Cloudy
4:00 PM 60.8 °F 59.0 °F 94% 29.47 in 6.2 mi SE 12.7 mph - N/A   Mostly Cloudy
4:30 PM 60.8 °F 59.0 °F 94% 29.47 in 6.2 mi SE 15.0 mph - N/A   Mostly Cloudy
5:00 PM 60.8 °F 57.2 °F 88% 29.47 in 5.0 mi SE 12.7 mph - N/A   Mostly Cloudy
5:30 PM 60.8 °F 57.2 °F 88% 29.47 in 6.2 mi SE 15.0 mph - N/A   Mostly Cloudy
6:00 PM 60.8 °F 57.2 °F 88% 29.44 in 6.2 mi ESE 17.3 mph - N/A   Mostly Cloudy
6:30 PM 59.0 °F 57.2 °F 94% 29.44 in 6.2 mi SE 16.1 mph - N/A   Mostly Cloudy
7:00 PM 59 °F 56 °F 87% 29.47 in 16 mi SE 17.9 mph - -   Partly Cloudy
7:00 PM 59.0 °F 55.4 °F 88% 29.44 in 6.2 mi SE 18.4 mph - N/A   Mostly Cloudy
7:30 PM 59.0 °F 55.4 °F 88% 29.44 in 6.2 mi ESE 15.0 mph - N/A   Mostly Cloudy
8:00 PM 59.0 °F 55.4 °F 88% 29.44 in 6.2 mi SE 16.1 mph - N/A   Mostly Cloudy
8:30 PM 57.2 °F 55.4 °F 94% 29.44 in 6.2 mi ESE 15.0 mph - N/A   Mostly Cloudy
9:00 PM 57.2 °F 55.4 °F 94% 29.44 in 6.2 mi ESE 12.7 mph - N/A   Mostly Cloudy
9:30 PM 57.2 °F 55.4 °F 94% 29.44 in 6.2 mi ESE 9.2 mph - N/A   Mostly Cloudy
10:00 PM 57.2 °F 55.4 °F 94% 29.44 in 6.2 mi East 9.2 mph - N/A   Mostly Cloudy
10:30 PM 57.2 °F 55.4 °F 94% 29.44 in 3.7 mi ESE 12.7 mph - N/A Rain Light Rain
11:00 PM 57.2 °F 57.2 °F 100% 29.42 in 6.2 mi ESE 10.4 mph - N/A   Mostly Cloudy
11:30 PM 57.2 °F 57.2 °F 100% 29.42 in 6.2 mi ESE 10.4 mph - N/A   Mostly Cloudy